Weather in Roshino

Russia / Saint-Petersburg and Leningrad Oblast     60°15′23″N   29°36′11″E
temp.,
°C
wind,
m/s
gust,
m/s
humid.,
%
clouds,
%
prec.,
mm/h
press.,
hPa
HPBL,
m
16 june, wed
wed1600:00+10wsw35892 0.0 101198
03:00+9w24904 0.0 101367
06:00+12w39700 0.0 1014344
09:00+16w59505 0.0 10151221
12:00+18w610455 0.0 10161673
15:00+18w6945100 0.0 10171811
18:00+18w4747100 0.0 10171010
21:00+14wsw386883 0.0 1018269
17 june, thu
thu1700:00+11wsw310805 0.0 1019253
03:00+10wsw38908 0.0 1020175
06:00+13w48805 0.0 1021272
09:00+17w34565 0.0 1023711
12:00+19wsw44475 0.0 10241071
15:00+20wsw34415 0.0 1024890
18:00+20wsw35395 0.0 1024591
21:00+16ssw115617 0.0 102311
18 june, fri
fri1800:00+13sse236358 0.0 102354
03:00+13ssw268118 0.0 102397
06:00+15ssw277751 0.0 1023167
09:00+19sw47635 0.0 1022428
12:00+23wsw610495 0.0 10221116
15:00+24wsw610422 0.0 10211177
18:00+25wsw59430 0.0 10191349
21:00+19wsw27670 0.0 1019146
19 june, sat
sat1900:00+16wsw22710 0.0 102025
03:00+15sw37840 0.0 1020117
06:00+17sw310780 0.0 1020288
09:00+21wsw58713 0.0 1020513
12:00+25wsw59560 0.0 10201385
15:00+27wsw58470 0.0 10191671
18:00+26wsw595478 0.0 10181093
21:00+22wsw256799 0.0 101789
20 june, sun
sun2000:00+20s297198 0.0 1018212
03:00+17sw310790 0.0 1017186
06:00+18ssw310793 0.0 1017218
09:00+22ssw510685 0.0 1016532
12:00+26sw595266 0.0 10161280
15:00+27wsw6948100 0.0 10151475
18:00+23wnw4872100 0.1 1015301
21:00+19wsw3890100 0.3 1015294